Date String (YYYY-MM-DD hh:mm:ss) UTC,Instrument flags,Ambient pressure (hPa),Sample flow (lpm),Bypass flow (lpm),Sample temperature (°C),Ambient temperature (°C),ASC tube jacket temperature (°C),LED temperature (°C),Box temperature (°C),Sample RH (%),Span deviation,Mass concentration (μg/m³),Mass concentration (μg/m³),Mass concentration (μg/m³)
DateTimeUTC,F1_M11,P_M11,Q1_M11,Q2_M11,T1_M11,T2_M11,T3_M11,T4_M11,T5_M11,U1_M11,ZSPAN_M11,X0_M11,X2_M11,X1_M11
2022-07-06 20:00:00,,0828.1,5.00,0.00,29.6,27.6,00.0,38.4,31.4,32.4,0000.0,0016.78,0004.92,0003.77
2022-07-06 20:01:00,,0828.1,4.99,0.00,29.6,27.8,00.0,38.4,31.5,31.9,0000.0,0016.25,0004.79,0003.73
2022-07-06 20:02:00,,0828.0,5.00,0.00,29.6,28.0,00.0,38.4,31.5,31.9,0000.0,0015.55,0004.69,0003.70
2022-07-06 20:03:00,,0828.1,5.00,0.00,29.7,28.1,00.0,38.4,31.6,32.2,0000.0,0013.45,0004.55,0003.64
2022-07-06 20:04:00,,0828.1,4.99,0.00,29.7,28.3,00.0,38.4,31.6,32.5,0000.0,0013.07,0004.51,0003.61
2022-07-06 20:05:00,,0828.1,5.01,0.00,29.7,28.5,00.0,38.4,31.7,32.7,0000.0,0012.96,0004.51,0003.58
2022-07-06 20:06:00,,0828.1,5.00,0.00,29.8,28.6,00.0,38.4,31.8,32.9,0000.0,0012.92,0004.47,0003.54
2022-07-06 20:07:00,,0828.0,5.02,0.00,29.8,28.1,00.0,38.4,31.7,32.3,0000.0,0012.57,0004.36,0003.50
2022-07-06 20:08:00,,0828.0,4.99,0.00,29.8,27.5,00.0,38.4,31.6,32.7,0000.0,0012.98,0004.29,0003.46
2022-07-06 20:09:00,,0828.0,4.99,0.00,29.7,27.3,00.0,38.3,31.5,33.3,0000.0,0010.89,0004.20,0003.44
2022-07-06 20:10:00,,0828.1,5.00,0.00,29.6,27.3,00.0,38.3,31.4,33.5,0000.0,0009.52,0004.13,0003.43
2022-07-06 20:11:00,,0828.1,5.00,0.00,29.6,27.5,00.0,38.3,31.4,33.0,0000.0,0009.61,0004.10,0003.43
2022-07-06 20:12:00,,0828.1,5.01,0.00,29.6,27.6,00.0,38.3,31.4,33.2,0000.0,0009.74,0004.11,0003.44
2022-07-06 20:13:00,,0828.1,4.99,0.00,29.6,27.8,00.0,38.3,31.5,33.3,0000.0,0009.79,0004.12,0003.45
2022-07-06 20:14:00,,0828.1,5.00,0.00,29.6,28.0,00.0,38.4,31.5,33.5,0000.0,0009.92,0004.16,0003.47
2022-07-06 20:15:00,,0828.1,5.00,0.00,29.6,28.2,00.0,38.4,31.6,33.9,0000.0,0009.92,0004.17,0003.49
2022-07-06 20:16:00,,0828.1,5.00,0.00,29.7,28.4,00.0,38.4,31.6,33.5,0000.0,0010.16,0004.17,0003.52
2022-07-06 20:17:00,,0828.1,5.00,0.00,29.7,28.5,00.0,38.4,31.7,33.5,0000.0,0011.04,0004.19,0003.56
2022-07-06 20:18:00,,0828.1,5.00,0.00,29.7,28.5,00.0,38.4,31.8,33.6,0000.0,0010.80,0004.23,0003.61
2022-07-06 20:19:00,,0828.0,5.00,0.00,29.8,28.0,00.0,38.3,31.7,33.5,0000.0,0010.62,0004.34,0003.65
2022-07-06 20:20:00,,0828.0,5.00,0.00,29.7,27.5,00.0,38.3,31.6,33.3,0000.0,0011.15,0004.44,0003.70
2022-07-06 20:21:00,,0828.0,5.00,0.00,29.7,27.3,00.0,38.3,31.5,33.2,0000.0,0011.33,0004.50,0003.75
2022-07-06 20:22:00,,0827.9,5.00,0.00,29.6,27.4,00.0,38.3,31.4,33.4,-000.0,0011.52,0004.55,0003.79
2022-07-06 20:23:00,,0827.9,5.00,0.00,29.6,27.5,00.0,38.3,31.4,33.5,0000.2,0011.98,0004.63,0003.83
2022-07-06 20:24:00,,0827.9,5.00,0.00,29.6,27.7,00.0,38.3,31.4,33.7,0001.0,0013.67,0004.69,0003.86
2022-07-06 20:25:00,,0827.9,4.99,0.00,29.6,27.9,00.0,38.3,31.5,33.6,0000.7,0013.98,0004.75,0003.87
2022-07-06 20:26:00,,0827.9,5.00,0.00,29.6,28.1,00.0,38.3,31.5,33.3,0000.0,0013.99,0004.75,0003.88
2022-07-06 20:27:00,,0827.9,5.00,0.00,29.6,28.3,00.0,38.3,31.6,33.5,0000.0,0013.78,0004.73,0003.87
2022-07-06 20:28:00,,0828.0,5.01,0.00,29.7,28.4,00.0,38.4,31.7,33.5,0000.0,0012.77,0004.74,0003.87
2022-07-06 20:29:00,,0827.9,4.99,0.00,29.7,28.6,00.0,38.4,31.7,33.2,0000.0,0013.43,0004.79,0003.87
2022-07-06 20:30:00,,0827.9,5.00,0.00,29.7,28.4,00.0,38.4,31.7,33.3,0000.0,0014.07,0004.78,0003.86
2022-07-06 20:31:00,,0828.0,5.01,0.00,29.7,27.8,00.0,38.3,31.7,32.9,0000.0,0014.43,0004.71,0003.83
2022-07-06 20:32:00,,0827.9,5.01,0.00,29.7,27.4,00.0,38.3,31.6,32.6,0000.0,0014.29,0004.68,0003.79
2022-07-06 20:33:00,,0827.9,5.00,0.00,29.7,27.3,00.0,38.3,31.4,32.8,0000.0,0013.62,0004.65,0003.77
2022-07-06 20:34:00,,0827.9,5.00,0.00,29.6,27.4,00.0,38.3,31.4,32.8,0000.0,0012.96,0004.59,0003.75
2022-07-06 20:35:00,,0827.9,5.00,0.00,29.6,27.6,00.0,38.3,31.4,33.1,0000.0,0011.61,0004.54,0003.73
2022-07-06 20:36:00,,0827.9,5.00,0.00,29.6,27.8,00.0,38.3,31.4,33.0,0000.0,0011.40,0004.47,0003.71
2022-07-06 20:37:00,,0827.9,5.00,0.00,29.6,28.0,00.0,38.3,31.5,33.0,0000.0,0011.56,0004.45,0003.70
2022-07-06 20:38:00,,0827.9,5.00,0.00,29.6,28.2,00.0,38.3,31.5,32.9,0000.0,0011.68,0004.47,0003.68
2022-07-06 20:39:00,,0828.0,5.00,0.00,29.6,28.4,00.0,38.3,31.6,33.2,0000.0,0011.62,0004.43,0003.65
2022-07-06 20:40:00,,0827.9,5.00,0.00,29.7,28.5,00.0,38.4,31.7,33.1,0000.0,0011.05,0004.37,0003.61
2022-07-06 20:41:00,,0827.8,5.00,0.00,29.7,28.1,00.0,38.3,31.7,33.0,0000.0,0010.19,0004.34,0003.59
2022-07-06 20:42:00,,0827.8,5.00,0.00,29.7,27.5,00.0,38.3,31.5,32.8,0000.0,0010.31,0004.34,0003.60
2022-07-06 20:43:00,,0827.8,5.01,0.00,29.7,27.3,00.0,38.3,31.5,32.9,0000.0,0010.40,0004.34,0003.60
2022-07-06 20:44:00,,0827.8,5.00,0.00,29.6,27.3,00.0,38.3,31.4,33.3,0000.0,0011.12,0004.35,0003.59
2022-07-06 20:45:00,,0827.9,5.01,0.00,29.5,27.4,00.0,38.3,31.3,33.1,0000.0,0011.34,0004.40,0003.60
2022-07-06 20:46:00,,0827.9,4.99,0.00,29.5,27.6,00.0,38.3,31.4,33.1,0000.0,0011.10,0004.42,0003.61
2022-07-06 20:47:00,,0827.9,5.00,0.00,29.5,27.8,00.0,38.3,31.4,33.0,0000.0,0011.07,0004.44,0003.61
2022-07-06 20:48:00,,0827.9,5.01,0.00,29.6,28.0,00.0,38.3,31.5,32.6,0000.0,0011.28,0004.46,0003.59
2022-07-06 20:49:00,,0827.9,5.00,0.00,29.6,28.2,00.0,38.3,31.6,33.3,0000.0,0012.16,0004.45,0003.58
2022-07-06 20:50:00,,0827.9,5.00,0.00,29.6,28.4,00.0,38.3,31.6,33.2,0000.0,0012.66,0004.47,0003.58
2022-07-06 20:51:00,,0827.9,5.00,0.00,29.7,28.4,00.0,38.3,31.7,32.5,0000.0,0012.43,0004.43,0003.57
2022-07-06 20:52:00,,0828.0,5.00,0.00,29.7,27.9,00.0,38.3,31.6,31.3,0000.0,0012.25,0004.38,0003.54
2022-07-06 20:53:00,,0827.9,4.99,0.00,29.7,27.4,00.0,38.3,31.5,31.3,0000.0,0011.22,0004.30,0003.47
2022-07-06 20:54:00,,0828.0,5.00,0.00,29.6,27.3,00.0,38.3,31.4,31.1,0000.0,0010.78,0004.22,0003.43
2022-07-06 20:55:00,,0827.9,5.00,0.00,29.6,27.3,00.0,38.3,31.3,31.7,0000.0,0010.07,0004.13,0003.37
2022-07-06 20:56:00,,0827.9,5.00,0.00,29.5,27.5,00.0,38.3,31.3,32.3,0000.0,0009.64,0004.06,0003.33
2022-07-06 20:57:00,,0827.8,5.00,0.00,29.5,27.7,00.0,38.3,31.4,32.2,0000.0,0009.51,0003.98,0003.28
2022-07-06 20:58:00,,0827.9,5.01,0.00,29.5,27.9,00.0,38.3,31.4,31.6,0000.0,0009.31,0003.95,0003.24
2022-07-06 20:59:00,,0827.9,4.99,0.00,29.6,28.1,00.0,38.3,31.5,31.7,0000.0,0008.95,0003.90,0003.21
